| time (UTC) | temp F | wind direction | speed MPH | gust MPH | rain 1hr in | rain 24hr in | rain mn in | humidity % | barometer mb |
| 20260902025615 | 73 | 189 | 2.0 | 4.0 | 0.00 | 0.00 | 0.00 | 44 | 1014.5 |
| 20260902024624 | 73 | 194 | 2.0 | 3.0 | 0.00 | 0.00 | 0.00 | 44 | 1014.5 |
| 20260902023635 | 73 | 194 | 2.0 | 3.0 | 0.00 | 0.00 | 0.00 | 43 | 1014.5 |
| 20260902022628 | 74 | 195 | 0.0 | 2.0 | 0.00 | 0.00 | 0.00 | 44 | 1014.4 |
| 20260902021618 | 75 | 195 | 0.0 | 3.0 | 0.00 | 0.00 | 0.00 | 42 | 1014.3 |
| 20260902020628 | 75 | 196 | 1.0 | 5.0 | 0.00 | 0.00 | 0.00 | 40 | 1014.3 |
| 20260902015631 | 76 | 214 | 2.0 | 3.0 | 0.00 | 0.00 | 0.00 | 40 | 1014.3 |
| 20260902014626 | 76 | 214 | 0.0 | 3.0 | 0.00 | 0.00 | 0.00 | 39 | 1014.4 |
| 20260902013615 | 77 | 214 | 2.0 | 4.0 | 0.00 | 0.00 | 0.00 | 38 | 1014.4 |
| 20260902012627 | 78 | 216 | 3.0 | 7.0 | 0.00 | 0.00 | 0.00 | 37 | 1014.5 |
| 20260902011617 | 78 | 134 | 3.0 | 7.0 | 0.00 | 0.00 | 0.00 | 36 | 1014.5 |
| 20260902010630 | 79 | 155 | 1.0 | 7.0 | 0.00 | 0.00 | 0.00 | 35 | 1014.5 |
| 20260902005612 | 79 | 126 | 5.0 | 14.0 | 0.00 | 0.03 | 0.00 | 34 | 1014.5 |
| 20260902004623 | 79 | 191 | 14.0 | 23.0 | 0.00 | 0.03 | 0.00 | 33 | 1014.7 |
| 20260902003614 | 80 | 188 | 3.0 | 9.0 | 0.00 | 0.03 | 0.00 | 33 | 1014.6 |
| 20260902002651 | 79 | 159 | 6.0 | 12.0 | 0.00 | 0.03 | 0.00 | 32 | 1014.6 |
| 20260902001621 | 80 | 192 | 6.0 | 10.0 | 0.00 | 0.03 | 0.00 | 33 | 1014.8 |
| 20260902000633 | 80 | 176 | 7.0 | 14.0 | 0.00 | 0.03 | 0.00 | 32 | 1014.9 |
| 20260901235635 | 81 | 219 | 7.0 | 16.0 | 0.00 | 0.04 | 0.00 | 32 | 1014.9 |
| 20260901234624 | 81 | 189 | 8.0 | 11.0 | 0.00 | 0.04 | 0.00 | 33 | 1014.9 |
| 20260901233639 | 81 | 182 | 6.0 | 10.0 | 0.00 | 0.04 | 0.00 | 33 | 1015.1 |
| 20260901232629 | 80 | 171 | 6.0 | 11.0 | 0.00 | 0.04 | 0.00 | 34 | 1015.2 |
| 20260901231641 | 80 | 159 | 7.0 | 11.0 | 0.00 | 0.04 | 0.00 | 33 | 1015.3 |
| 20260901230631 | 80 | 191 | 8.0 | 17.0 | 0.00 | 0.04 | 0.00 | 34 | 1015.5 |
| 20260901225618 | 80 | 132 | 10.0 | 15.0 | 0.00 | 0.04 | 0.00 | 34 | 1015.5 |
| 20260901224629 | 80 | 200 | 10.0 | 18.0 | 0.00 | 0.04 | 0.00 | 35 | 1015.6 |
| 20260901223619 | 80 | 172 | 15.0 | 22.0 | 0.00 | 0.04 | 0.00 | 33 | 1015.8 |
| 20260901222629 | 80 | 180 | 7.0 | 22.0 | 0.00 | 0.04 | 0.00 | 37 | 1015.7 |
| 20260901221643 | 80 | 188 | 9.0 | 19.0 | 0.00 | 0.04 | 0.00 | 38 | 1015.9 |
| 20260901220651 | 79 | 184 | 10.0 | 16.0 | 0.00 | 0.04 | 0.00 | 37 | 1016.0 |
| 20260901215631 | 78 | 225 | 11.0 | 27.0 | 0.00 | 0.04 | 0.00 | 36 | 1016.2 |
| 20260901214620 | 78 | 144 | 11.0 | 17.0 | 0.00 | 0.04 | 0.00 | 35 | 1016.3 |
| 20260901213613 | 79 | 127 | 10.0 | 14.0 | 0.00 | 0.04 | 0.00 | 36 | 1016.5 |
| 20260901212622 | 79 | 142 | 12.0 | 18.0 | 0.00 | 0.04 | 0.00 | 34 | 1016.5 |
| 20260901211614 | 80 | 213 | 12.0 | 19.0 | 0.00 | 0.04 | 0.00 | 35 | 1016.7 |
| 20260901210645 | 79 | 112 | 8.0 | 13.0 | 0.00 | 0.04 | 0.00 | 34 | 1016.8 |
| 20260901205630 | 78 | 140 | 5.0 | 12.0 | 0.00 | 0.04 | 0.00 | 35 | 1017.0 |
| 20260901204619 | 79 | 155 | 9.0 | 17.0 | 0.00 | 0.04 | 0.00 | 34 | 1017.2 |
| 20260901203630 | 79 | 219 | 6.0 | 10.0 | 0.00 | 0.04 | 0.00 | 37 | 1017.4 |
| 20260901202621 | 77 | 183 | 9.0 | 14.0 | 0.00 | 0.04 | 0.00 | 38 | 1017.6 |
| 20260901201614 | 77 | 146 | 4.0 | 10.0 | 0.00 | 0.04 | 0.00 | 41 | 1017.9 |
| 20260901200624 | 76 | 138 | 5.0 | 13.0 | 0.00 | 0.04 | 0.00 | 44 | 1017.9 |
| 20260901195625 | 75 | 168 | 6.0 | 11.0 | 0.00 | 0.04 | 0.00 | 46 | 1018.0 |
| 20260901194617 | 76 | 160 | 11.0 | 13.0 | 0.00 | 0.04 | 0.00 | 43 | 1018.1 |
| 20260901193632 | 75 | 144 | 9.0 | 16.0 | 0.00 | 0.04 | 0.00 | 44 | 1018.0 |
| 20260901192622 | 76 | 170 | 9.0 | 17.0 | 0.00 | 0.04 | 0.00 | 45 | 1018.1 |
| 20260901191612 | 76 | 161 | 10.0 | 15.0 | 0.00 | 0.04 | 0.00 | 45 | 1018.2 |
| 20260901190626 | 76 | 143 | 7.0 | 14.0 | 0.00 | 0.04 | 0.00 | 46 | 1018.2 |
| 20260901185624 | 76 | 295 | 2.0 | 5.0 | 0.00 | 0.04 | 0.00 | 48 | 1018.3 |
| 20260901184634 | 75 | 278 | 1.0 | 7.0 | 0.00 | 0.04 | 0.00 | 52 | 1018.3 |
| 20260901183623 | 74 | 311 | 2.0 | 8.0 | 0.00 | 0.04 | 0.00 | 51 | 1018.4 |
| 20260901182616 | 73 | 271 | 2.0 | 3.0 | 0.00 | 0.04 | 0.00 | 57 | 1018.6 |
| 20260901181627 | 72 | 263 | 3.0 | 7.0 | 0.00 | 0.04 | 0.00 | 63 | 1018.5 |
| 20260901180624 | 70 | 271 | 4.0 | 8.0 | 0.00 | 0.04 | 0.00 | 65 | 1018.6 |
| 20260901175627 | 70 | 261 | 5.0 | 7.0 | 0.00 | 0.04 | 0.00 | 65 | 1018.6 |
| 20260901174618 | 69 | 253 | 4.0 | 7.0 | 0.00 | 0.04 | 0.00 | 67 | 1018.7 |
| 20260901173614 | 68 | 265 | 2.0 | 8.0 | 0.00 | 0.04 | 0.00 | 68 | 1018.8 |
| 20260901172625 | 67 | 242 | 4.0 | 7.0 | 0.00 | 0.04 | 0.00 | 69 | 1019.0 |
| 20260901171617 | 66 | 289 | 3.0 | 8.0 | 0.00 | 0.04 | 0.00 | 71 | 1019.1 |
| 20260901170647 | 66 | 284 | 5.0 | 8.0 | 0.00 | 0.04 | 0.00 | 72 | 1019.1 |
| 20260901165613 | 65 | 234 | 4.0 | 7.0 | 0.00 | 0.04 | 0.00 | 72 | 1019.2 |
| 20260901164624 | 64 | 238 | 2.0 | 5.0 | 0.00 | 0.04 | 0.00 | 73 | 1019.2 |
| 20260901163630 | 63 | 261 | 3.0 | 7.0 | 0.00 | 0.04 | 0.00 | 74 | 1019.3 |
| 20260901162620 | 62 | 268 | 2.0 | 6.0 | 0.00 | 0.04 | 0.00 | 75 | 1019.4 |
| 20260901161615 | 62 | 265 | 3.0 | 4.0 | 0.00 | 0.04 | 0.00 | 76 | 1019.4 |
| 20260901160644 | 62 | 269 | 2.0 | 4.0 | 0.00 | 0.04 | 0.00 | 77 | 1019.4 |
| 20260901155625 | 62 | 268 | 1.0 | 4.0 | 0.00 | 0.04 | 0.00 | 78 | 1019.6 |
| 20260901154613 | 61 | 244 | 0.0 | 2.0 | 0.00 | 0.04 | 0.00 | 82 | 1019.7 |
| 20260901153628 | 59 | 244 | 1.0 | 3.0 | 0.00 | 0.04 | 0.00 | 84 | 1019.7 |
| 20260901152617 | 58 | 244 | 0.0 | 3.0 | 0.00 | 0.04 | 0.00 | 88 | 1019.8 |
| 20260901151627 | 57 | 244 | 1.0 | 3.0 | 0.00 | 0.04 | 0.00 | 87 | 1019.9 |
| 20260901150616 | 57 | 244 | 2.0 | 4.0 | 0.00 | 0.04 | 0.00 | 87 | 1019.9 |
| 20260901145621 | 57 | 200 | 1.0 | 3.0 | 0.00 | 0.04 | 0.00 | 90 | 1020.1 |
| 20260901144632 | 55 | 200 | 0.0 | 2.0 | 0.00 | 0.04 | 0.00 | 91 | 1020.0 |
| 20260901143621 | 54 | 200 | 0.0 | 1.0 | 0.00 | 0.04 | 0.00 | 92 | 1019.9 |
| 20260901142614 | 53 | 200 | 0.0 | 3.0 | 0.00 | 0.04 | 0.00 | 91 | 1019.9 |
| 20260901141643 | 52 | 200 | 2.0 | 3.0 | 0.00 | 0.04 | 0.00 | 92 | 1019.8 |
| 20260901140612 | 52 | 200 | 2.0 | 2.0 | 0.00 | 0.04 | 0.00 | 92 | 1019.9 |
| 20260901135614 | 52 | 200 | 0.0 | 2.0 | 0.00 | 0.04 | 0.00 | 93 | 1019.9 |
| 20260901134623 | 51 | 200 | 0.0 | 1.0 | 0.00 | 0.04 | 0.00 | 93 | 1019.8 |
| 20260901133637 | 51 | 200 | 1.0 | 3.0 | 0.00 | 0.04 | 0.00 | 92 | 1019.8 |
| 20260901132625 | 51 | 200 | 2.0 | 4.0 | 0.00 | 0.04 | 0.00 | 93 | 1019.7 |
| 20260901131615 | 51 | 200 | 3.0 | 4.0 | 0.00 | 0.04 | 0.00 | 93 | 1019.6 |
| 20260901130647 | 52 | 261 | 2.0 | 3.0 | 0.00 | 0.04 | 0.00 | 92 | 1019.5 |
| 20260901125631 | 52 | 265 | 1.0 | 2.0 | 0.00 | 0.04 | 0.00 | 92 | 1019.5 |
| 20260901124619 | 52 | 265 | 0.0 | 3.0 | 0.00 | 0.04 | 0.00 | 93 | 1019.5 |
| 20260901123627 | 52 | 265 | 2.0 | 3.0 | 0.00 | 0.04 | 0.00 | 93 | 1019.4 |
| 20260901122616 | 52 | 258 | 1.0 | 3.0 | 0.00 | 0.04 | 0.00 | 93 | 1019.4 |
| 20260901121645 | 52 | 258 | 0.0 | 1.0 | 0.00 | 0.04 | 0.00 | 92 | 1019.4 |
| 20260901120619 | 52 | 258 | 0.0 | 0.0 | 0.00 | 0.04 | 0.00 | 92 | 1019.4 |
| 20260901115621 | 52 | 258 | 0.0 | 1.0 | 0.00 | 0.04 | 0.00 | 92 | 1019.3 |
| 20260901114630 | 53 | 258 | 1.0 | 2.0 | 0.00 | 0.04 | 0.00 | 92 | 1019.2 |
| 20260901113619 | 53 | 258 | 0.0 | 0.0 | 0.00 | 0.04 | 0.00 | 92 | 1019.1 |
| 20260901112613 | 54 | 258 | 0.0 | 0.0 | 0.00 | 0.04 | 0.00 | 92 | 1019.0 |
| 20260901111621 | 54 | 258 | 0.0 | 0.0 | 0.00 | 0.04 | 0.00 | 92 | 1019.1 |
| 20260901110630 | 54 | 258 | 0.0 | 0.0 | 0.00 | 0.04 | 0.00 | 92 | 1019.1 |
| 20260901105612 | 54 | 258 | 0.0 | 0.0 | 0.00 | 0.04 | 0.00 | 91 | 1019.2 |
| 20260901104648 | 55 | 258 | 0.0 | 0.0 | 0.00 | 0.04 | 0.00 | 92 | 1019.2 |
| 20260901103618 | 55 | 258 | 0.0 | 0.0 | 0.00 | 0.04 | 0.00 | 91 | 1019.2 |
| 20260901102629 | 55 | 258 | 0.0 | 0.0 | 0.00 | 0.04 | 0.00 | 91 | 1019.2 |
| 20260901101620 | 56 | 258 | 0.0 | 1.0 | 0.00 | 0.04 | 0.00 | 91 | 1019.3 |
| 20260901100615 | 56 | 258 | 2.0 | 3.0 | 0.00 | 0.04 | 0.00 | 90 | 1019.2 |
| 20260901095616 | 56 | 257 | 2.0 | 4.0 | 0.00 | 0.04 | 0.00 | 90 | 1019.2 |
| 20260901094628 | 56 | 347 | 1.0 | 1.0 | 0.00 | 0.04 | 0.00 | 90 | 1019.1 |
| 20260901093619 | 57 | 347 | 0.0 | 2.0 | 0.00 | 0.04 | 0.00 | 89 | 1019.1 |
| 20260901092613 | 57 | 347 | 0.0 | 3.0 | 0.00 | 0.04 | 0.00 | 88 | 1019.0 |
| 20260901091623 | 57 | 348 | 2.0 | 4.0 | 0.00 | 0.04 | 0.00 | 88 | 1019.0 |
| 20260901090613 | 58 | 351 | 1.0 | 2.0 | 0.00 | 0.04 | 0.00 | 87 | 1019.0 |
| 20260901085618 | 58 | 355 | 0.0 | 2.0 | 0.00 | 0.04 | 0.00 | 87 | 1018.9 |
| 20260901084629 | 58 | 355 | 1.0 | 4.0 | 0.00 | 0.04 | 0.00 | 86 | 1019.1 |
| 20260901083638 | 59 | 5 | 4.0 | 9.0 | 0.00 | 0.04 | 0.00 | 86 | 1018.9 |
| 20260901082627 | 58 | 175 | 4.0 | 6.0 | 0.00 | 0.04 | 0.00 | 87 | 1018.9 |
| 20260901081621 | 58 | 126 | 2.0 | 4.0 | 0.00 | 0.04 | 0.00 | 88 | 1018.9 |
| 20260901080630 | 58 | 333 | 0.0 | 3.0 | 0.00 | 0.04 | 0.00 | 88 | 1019.0 |
| 20260901075631 | 58 | 333 | 2.0 | 3.0 | 0.00 | 0.04 | 0.00 | 88 | 1019.2 |
| 20260901074642 | 58 | 326 | 0.0 | 1.0 | 0.00 | 0.04 | 0.00 | 88 | 1019.3 |
| 20260901073616 | 58 | 326 | 2.0 | 5.0 | 0.00 | 0.04 | 0.00 | 89 | 1019.4 |
| 20260901072626 | 58 | 289 | 3.0 | 4.0 | 0.00 | 0.04 | 0.00 | 88 | 1019.5 |
| 20260901071616 | 58 | 242 | 0.0 | 0.0 | 0.00 | 0.04 | 0.00 | 88 | 1019.7 |
| 20260901070627 | 58 | 242 | 2.0 | 3.0 | 0.00 | 0.04 | 0.00 | 88 | 1019.6 |
| 20260901065613 | 58 | 240 | 3.0 | 5.0 | 0.00 | 0.04 | 0.00 | 88 | 1019.4 |
| 20260901064623 | 59 | 258 | 2.0 | 4.0 | 0.00 | 0.04 | 0.00 | 88 | 1019.4 |
| 20260901063612 | 59 | 268 | 1.0 | 4.0 | 0.00 | 0.04 | 0.00 | 88 | 1019.4 |
| 20260901062621 | 59 | 246 | 1.0 | 3.0 | 0.00 | 0.04 | 0.00 | 87 | 1019.8 |
| 20260901061617 | 59 | 246 | 2.0 | 3.0 | 0.00 | 0.04 | 0.00 | 87 | 1019.9 |
| 20260901060614 | 59 | 247 | 1.0 | 2.0 | 0.00 | 0.04 | 0.00 | 87 | 1019.9 |
| 20260901055617 | 59 | 247 | 0.0 | 3.0 | 0.00 | 0.04 | 0.04 | 87 | 1019.7 |
| 20260901054648 | 59 | 247 | 0.0 | 2.0 | 0.00 | 0.04 | 0.04 | 87 | 1019.9 |
| 20260901053618 | 59 | 247 | 1.0 | 2.0 | 0.00 | 0.04 | 0.04 | 87 | 1019.9 |
| 20260901052613 | 59 | 247 | 0.0 | 0.0 | 0.00 | 0.04 | 0.04 | 87 | 1020.0 |
| 20260901051644 | 59 | 247 | 0.0 | 1.0 | 0.00 | 0.04 | 0.04 | 87 | 1020.3 |
| 20260901050613 | 59 | 247 | 0.0 | 2.0 | 0.00 | 0.04 | 0.04 | 87 | 1020.4 |
| 20260901045614 | 59 | 247 | 0.0 | 1.0 | 0.00 | 0.04 | 0.04 | 87 | 1020.4 |
| 20260901044629 | 59 | 247 | 0.0 | 2.0 | 0.00 | 0.04 | 0.04 | 87 | 1020.5 |
| 20260901043621 | 59 | 247 | 0.0 | 3.0 | 0.00 | 0.04 | 0.04 | 87 | 1020.5 |
| 20260901042612 | 59 | 247 | 0.0 | 1.0 | 0.00 | 0.04 | 0.04 | 87 | 1020.5 |
| 20260901041628 | 59 | 247 | 0.0 | 3.0 | 0.00 | 0.04 | 0.04 | 86 | 1020.5 |
| 20260901040639 | 59 | 247 | 3.0 | 4.0 | 0.00 | 0.04 | 0.04 | 86 | 1020.6 |
| 20260901035620 | 60 | 291 | 2.0 | 3.0 | 0.00 | 0.04 | 0.04 | 86 | 1020.8 |
| 20260901034631 | 60 | 292 | 0.0 | 3.0 | 0.00 | 0.04 | 0.04 | 85 | 1020.6 |
| 20260901033642 | 60 | 292 | 1.0 | 3.0 | 0.00 | 0.04 | 0.04 | 85 | 1020.4 |
| 20260901032635 | 60 | 292 | 3.0 | 7.0 | 0.00 | 0.04 | 0.04 | 85 | 1020.5 |
| 20260901031624 | 60 | 306 | 2.0 | 5.0 | 0.00 | 0.04 | 0.04 | 84 | 1020.7 |
| 20260901030614 | 60 | 263 | 3.0 | 6.0 | 0.00 | 0.04 | 0.04 | 84 | 1020.6 |